EW6800 Weather Reports


Display with metric or nautical units.
time (UTC)temp
F
wind
direction
speed
MPH
gust
MPH
rain 1hr
in
rain 24hr
in
rain mn
in
humidity
%
barometer
mb
20200401121538 41 307 7.0 13.0 0.00 0.00 0.00 94 1016.3
20200401120534 41 321 7.0 14.0 0.00 0.00 0.00 94 1016.4
20200401120100 41 318 7.0 16.0 0.00 0.00 0.00 94 1016.4
20200401115512 41 321 8.0 16.0 0.00 0.00 0.00 94 1016.3
20200401115011 41 342 8.0 13.0 0.00 0.00 0.00 94 1016.4
20200401114536 41 313 8.0 16.0 0.00 0.00 0.00 94 1016.4
20200401114012 41 305 9.0 16.0 0.00 0.00 0.00 94 1016.4
20200401113508 41 317 8.0 13.0 0.00 0.00 0.00 94 1016.6
20200401113012 41 317 2.0 14.0 0.00 0.00 0.00 94 1016.7
20200401112510 41 309 6.0 14.0 0.00 0.00 0.00 95 1016.6
20200401112007 41 323 6.0 13.0 0.00 0.00 0.00 94 1016.6
20200401111534 41 317 7.0 14.0 0.00 0.00 0.00 95 1016.6
20200401110505 41 308 7.0 13.0 0.00 0.00 0.00 95 1016.7
20200401110005 41 327 7.0 12.0 0.00 0.00 0.00 95 1016.8
20200401105503 41 309 2.0 8.0 0.00 0.00 0.00 95 1016.8
20200401105003 41 308 5.0 11.0 0.00 0.00 0.00 96 1016.8
20200401104503 41 310 5.0 11.0 0.00 0.00 0.00 95 1016.9
20200401104003 41 313 1.0 13.0 0.00 0.00 0.00 96 1016.9
20200401103501 41 309 10.0 13.0 0.00 0.00 0.00 96 1017.0
20200401103219 42 304 6.0 13.0 0.00 0.00 0.00 96 1017.0
20200401102601 42 338 4.0 13.0 0.00 0.00 0.00 96 1017.1
20200401102106 42 306 4.0 16.0 0.00 0.00 0.00 96 1017.1
20200401101753 42 326 5.0 14.0 0.00 0.00 0.00 96 1017.2
20200401100558 43 316 6.0 15.0 0.00 0.00 0.00 96 1017.3
20200401100135 43 315 6.0 13.0 0.00 0.00 0.00 96 1017.3
20200401095556 43 302 6.0 13.0 0.00 0.00 0.00 96 1017.3
20200401095100 44 311 3.0 12.0 0.00 0.00 0.00 96 1017.3
20200401094613 44 323 5.0 12.0 0.00 0.00 0.00 96 1017.3
20200401094052 44 337 1.0 13.0 0.00 0.00 0.00 96 1017.5
20200401093555 44 308 2.0 13.0 0.00 0.00 0.00 96 1017.4
20200401093152 44 338 5.0 12.0 0.00 0.00 0.00 96 1017.4
20200401092611 44 319 4.0 12.0 0.00 0.00 0.00 96 1017.4
20200401092116 45 331 2.0 11.0 0.00 0.00 0.00 96 1017.4
20200401091735 45 305 5.0 11.0 0.00 0.00 0.00 96 1017.5
20200401090542 45 315 5.0 11.0 0.00 0.00 0.00 96 1017.6
20200401090045 45 309 6.0 11.0 0.00 0.00 0.00 96 1017.7
20200401085546 45 318 2.0 8.0 0.00 0.00 0.00 96 1017.7
20200401085047 45 315 4.0 11.0 0.00 0.00 0.00 96 1017.8
20200401084642 45 317 2.0 11.0 0.00 0.00 0.00 96 1017.8
20200401084041 45 321 6.0 11.0 0.00 0.00 0.00 96 1017.8
20200401083546 45 305 2.0 11.0 0.00 0.00 0.00 96 1018.0
20200401083104 45 290 1.0 8.0 0.00 0.00 0.00 96 1017.9
20200401082538 45 304 1.0 10.0 0.00 0.00 0.00 96 1017.9
20200401082037 45 325 3.0 10.0 0.00 0.00 0.00 96 1017.9
20200401081732 45 313 6.0 9.0 0.00 0.00 0.00 96 1017.9
20200401080545 45 325 5.0 14.0 0.00 0.00 0.00 96 1017.9
20200401080055 45 319 9.0 14.0 0.00 0.00 0.00 96 1018.0
20200401075537 45 316 2.0 5.0 0.00 0.00 0.00 96 1018.0
20200401075032 45 321 1.0 5.0 0.00 0.00 0.00 96 1018.1
20200401074615 45 319 0.0 4.0 0.00 0.00 0.00 96 1018.1
20200401074036 45 317 2.0 5.0 0.00 0.00 0.00 96 1018.2
20200401073532 45 302 0.0 8.0 0.00 0.00 0.00 96 1018.1
20200401073113 46 305 3.0 8.0 0.00 0.00 0.00 96 1018.2
20200401072533 46 319 2.0 6.0 0.00 0.00 0.00 96 1018.3
20200401072109 46 313 2.0 8.0 0.00 0.00 0.00 96 1018.2
20200401071642 46 315 2.0 8.0 0.00 0.00 0.00 96 1018.3
20200401070543 46 315 3.0 12.0 0.00 0.00 0.00 96 1018.3
20200401070105 46 314 5.0 12.0 0.00 0.00 0.00 96 1018.4
20200401065531 46 300 4.0 9.0 0.00 0.00 0.00 96 1018.4
20200401065034 46 300 6.0 10.0 0.00 0.00 0.00 96 1018.4
20200401064545 46 310 7.0 10.0 0.00 0.00 0.00 96 1018.4
20200401064029 46 317 3.0 10.0 0.00 0.00 0.00 96 1018.4
20200401063533 46 313 3.0 10.0 0.00 0.00 0.00 96 1018.5
20200401063103 46 321 7.0 10.0 0.00 0.00 0.00 96 1018.5
20200401062538 46 307 5.0 11.0 0.00 0.00 0.00 96 1018.5
20200401062041 46 306 5.0 11.0 0.00 0.00 0.00 96 1018.5
20200401061607 46 315 1.0 6.0 0.00 0.00 0.00 95 1018.5
20200401060553 46 314 2.0 5.0 0.00 0.00 0.00 96 1018.6
20200401060035 46 305 1.0 6.0 0.00 0.00 0.00 96 1018.6
20200401055533 46 310 3.0 6.0 0.00 0.00 0.00 96 1018.7
20200401055031 46 313 2.0 6.0 0.00 0.00 0.00 96 1018.9
20200401054559 46 313 3.0 6.0 0.00 0.00 0.00 96 1018.9
20200401054029 46 300 2.0 9.0 0.00 0.00 0.00 96 1019.0
20200401053542 46 315 4.0 9.0 0.00 0.00 0.00 96 1019.0
20200401053123 46 329 1.0 9.0 0.00 0.00 0.00 95 1019.1
20200401052539 46 305 2.0 9.0 0.00 0.00 0.00 95 1019.2
20200401052106 46 314 4.0 9.0 0.00 0.00 0.00 95 1019.2
20200401051541 46 301 3.0 11.0 0.00 0.00 0.00 95 1019.2
20200401050528 46 310 4.0 9.0 0.00 0.00 0.00 95 1019.2
20200401050053 46 321 4.0 9.0 0.00 0.00 0.00 95 1019.3
20200401045527 47 314 2.0 6.0 0.00 0.00 0.00 95 1019.2
20200401045029 47 306 3.0 9.0 0.00 0.00 0.00 95 1019.4
20200401044555 47 319 5.0 9.0 0.00 0.00 0.00 95 1019.3
20200401044025 47 313 5.0 9.0 0.00 0.00 0.00 95 1019.3
20200401043525 47 310 3.0 10.0 0.00 0.00 0.00 95 1019.4
20200401043027 47 319 3.0 10.0 0.00 0.00 0.00 95 1019.3
20200401042524 47 318 4.0 9.0 0.00 0.00 0.00 95 1019.4
20200401042028 47 309 4.0 11.0 0.00 0.00 0.00 95 1019.4
20200401041554 47 299 7.0 11.0 0.00 0.00 0.00 95 1019.3
20200401040523 47 313 5.0 10.0 0.00 0.00 0.00 95 1019.4
20200401040103 47 312 5.0 10.0 0.00 0.00 0.00 95 1019.4
20200401035533 47 314 4.0 9.0 0.00 0.00 0.00 95 1019.5
20200401035022 47 309 5.0 9.0 0.00 0.00 0.00 95 1019.6
20200401034603 48 315 6.0 10.0 0.00 0.00 0.00 95 1019.5
20200401034022 48 315 6.0 10.0 0.00 0.00 0.00 95 1019.6
20200401033521 48 306 5.0 10.0 0.00 0.00 0.00 94 1019.5
20200401033218 48 313 6.0 10.0 0.00 0.00 0.00 94 1019.5
20200401032535 48 313 4.0 8.0 0.00 0.00 0.00 94 1019.5
20200401032021 48 313 4.0 8.0 0.00 0.00 0.00 94 1019.5
20200401031551 48 314 3.0 8.0 0.00 0.00 0.00 94 1019.6
20200401030512 48 314 4.0 9.0 0.00 0.00 0.00 94 1019.5
20200401030104 48 312 4.0 10.0 0.00 0.00 0.00 94 1019.6
20200401025510 49 313 4.0 10.0 0.00 0.00 0.00 93 1019.6
20200401025010 49 306 3.0 8.0 0.00 0.00 0.00 93 1019.5
20200401024541 49 298 5.0 9.0 0.00 0.00 0.00 93 1019.5
20200401024009 49 311 5.0 9.0 0.00 0.00 0.00 93 1019.5
20200401023510 49 315 4.0 10.0 0.00 0.00 0.00 92 1019.5
20200401023045 49 313 6.0 11.0 0.00 0.00 0.00 92 1019.5
20200401022509 49 308 8.0 11.0 0.00 0.00 0.00 91 1019.5
20200401022025 50 317 6.0 10.0 0.00 0.00 0.00 91 1019.5
20200401021515 50 311 7.0 10.0 0.00 0.00 0.00 90 1019.4
20200401020549 50 307 6.0 11.0 0.00 0.00 0.00 90 1019.4
20200401020015 51 307 7.0 11.0 0.00 0.00 0.00 89 1019.4
20200401015510 51 302 6.0 10.0 0.00 0.00 0.00 89 1019.5
20200401015027 51 313 6.0 10.0 0.00 0.00 0.00 88 1019.5
20200401014513 51 309 6.0 10.0 0.00 0.00 0.00 88 1019.6
20200401014008 51 317 5.0 10.0 0.00 0.00 0.00 87 1019.6
20200401013511 52 306 4.0 10.0 0.00 0.00 0.00 87 1019.6
20200401013010 52 312 5.0 10.0 0.00 0.00 0.00 86 1019.6
20200401012507 52 306 6.0 10.0 0.00 0.00 0.00 86 1019.7
20200401012008 52 314 6.0 11.0 0.00 0.00 0.00 85 1019.8
20200401011533 52 305 5.0 11.0 0.00 0.00 0.00 85 1019.8
20200401010509 52 306 8.0 12.0 0.00 0.00 0.00 85 1019.9
20200401010009 53 317 8.0 12.0 0.00 0.00 0.00 85 1019.9
20200401005509 53 320 8.0 11.0 0.00 0.00 0.00 86 1020.0
20200401005008 53 304 6.0 10.0 0.00 0.00 0.00 86 1020.1
20200401004537 53 310 7.0 11.0 0.00 0.00 0.00 85 1020.1
20200401004010 54 301 7.0 11.0 0.00 0.00 0.00 85 1020.1
20200401003507 54 313 7.0 10.0 0.00 0.00 0.00 85 1020.2
20200401003009 54 316 5.0 9.0 0.00 0.00 0.00 84 1020.1
20200401002506 54 304 5.0 10.0 0.00 0.00 0.00 84 1020.2
20200401002010 54 301 2.0 10.0 0.00 0.00 0.00 84 1020.3
20200401001507 55 296 5.0 11.0 0.00 0.00 0.00 84 1020.3
20200401000516 55 313 3.0 11.0 0.00 0.00 0.00 83 1020.4
20200401000004 55 303 5.0 11.0 0.00 0.00 0.00 82 1020.4
20200331235505 56 313 6.0 10.0 0.00 0.00 0.00 82 1020.5
20200331235002 56 298 4.0 11.0 0.00 0.00 0.00 81 1020.5
20200331234503 56 313 6.0 11.0 0.00 0.00 0.00 82 1020.6
20200331234002 56 312 4.0 9.0 0.00 0.00 0.00 82 1020.5
20200331233501 57 309 3.0 9.0 0.00 0.00 0.00 81 1020.5
20200331233004 57 318 4.0 10.0 0.00 0.00 0.00 82 1020.6
20200331232501 57 315 6.0 10.0 0.00 0.00 0.00 82 1020.6
20200331232005 57 306 5.0 10.0 0.00 0.00 0.00 82 1020.6
20200331231502 57 314 4.0 11.0 0.00 0.00 0.00 82 1020.7
20200331230534 57 298 4.0 9.0 0.00 0.00 0.00 82 1020.7
20200331230005 57 304 3.0 8.0 0.00 0.00 0.00 82 1020.7
20200331225504 57 303 3.0 9.0 0.00 0.00 0.00 82 1020.8
20200331225001 58 296 4.0 9.0 0.00 0.00 0.00 82 1020.9
20200331224508 58 299 3.0 9.0 0.00 0.00 0.00 82 1021.0
20200331224001 58 314 3.0 8.0 0.00 0.00 0.00 81 1021.0
20200331223501 58 302 2.0 8.0 0.00 0.00 0.00 81 1021.0
20200331223153 58 310 3.0 8.0 0.00 0.00 0.00 81 1021.1
20200331222618 58 314 3.0 8.0 0.00 0.00 0.00 81 1021.1
20200331222059 58 317 3.0 8.0 0.00 0.00 0.00 81 1021.1
20200331221743 58 311 3.0 8.0 0.00 0.00 0.00 81 1021.2
20200331220552 59 297 3.0 8.0 0.00 0.00 0.00 80 1021.3
20200331220131 59 302 3.0 8.0 0.00 0.00 0.00 79 1021.3
20200331215619 59 303 2.0 8.0 0.00 0.00 0.00 79 1021.3
20200331215104 60 309 2.0 11.0 0.00 0.00 0.00 79 1021.4
20200331214624 60 310 4.0 11.0 0.00 0.00 0.00 79 1021.5
20200331214125 60 323 4.0 8.0 0.00 0.00 0.00 79 1021.5
20200331213619 60 313 2.0 5.0 0.00 0.00 0.00 79 1021.6
20200331213100 60 317 2.0 8.0 0.00 0.00 0.00 80 1021.6
20200331212549 60 320 2.0 8.0 0.00 0.00 0.00 79 1021.7
20200331212048 60 323 3.0 8.0 0.00 0.00 0.00 78 1021.7
20200331211632 60 317 4.0 8.0 0.00 0.00 0.00 79 1021.8
20200331210608 60 315 5.0 9.0 0.00 0.00 0.00 78 1021.9
20200331210105 60 313 5.0 9.0 0.00 0.00 0.00 78 1022.0
20200331205600 60 306 4.0 11.0 0.00 0.01 0.00 78 1022.0
20200331205051 60 317 5.0 11.0 0.00 0.01 0.00 77 1022.0
20200331204709 61 307 4.0 11.0 0.00 0.01 0.00 76 1022.2
20200331204050 61 310 4.0 10.0 0.00 0.01 0.00 76 1022.2
20200331203549 61 311 5.0 10.0 0.00 0.01 0.00 75 1022.3
20200331203126 61 307 3.0 6.0 0.00 0.01 0.00 75 1022.4
20200331202547 61 326 3.0 8.0 0.00 0.01 0.00 74 1022.5
20200331202050 61 316 3.0 8.0 0.00 0.01 0.00 73 1022.5
20200331201603 61 314 3.0 6.0 0.00 0.01 0.00 74 1022.6
20200331200540 61 315 4.0 8.0 0.00 0.01 0.00 72 1022.7
20200331200116 61 314 3.0 9.0 0.00 0.01 0.00 71 1022.7
20200331195545 61 306 4.0 9.0 0.00 0.01 0.00 70 1022.8
20200331195040 61 315 3.0 8.0 0.00 0.01 0.00 71 1022.9
20200331194606 61 297 3.0 8.0 0.00 0.01 0.00 68 1023.0
20200331194034 61 313 4.0 8.0 0.00 0.01 0.00 70 1023.1
20200331193537 61 317 2.0 6.0 0.00 0.01 0.00 70 1023.2
20200331193102 60 316 2.0 5.0 0.00 0.01 0.00 70 1023.3
20200331192530 60 316 2.0 5.0 0.00 0.01 0.00 71 1023.3
20200331192029 60 316 2.0 6.0 0.00 0.01 0.00 71 1023.4
20200331191547 59 333 2.0 6.0 0.00 0.01 0.00 72 1023.5
20200331190528 59 314 3.0 6.0 0.00 0.01 0.00 72 1023.7
20200331190028 59 295 3.0 6.0 0.00 0.01 0.00 72 1023.8
20200331185527 59 318 3.0 6.0 0.00 0.01 0.00 73 1023.8
20200331185034 59 319 2.0 5.0 0.00 0.01 0.00 73 1023.9
20200331184525 58 316 3.0 5.0 0.00 0.01 0.00 74 1024.0
20200331184041 58 313 2.0 5.0 0.00 0.01 0.00 74 1024.0
20200331183522 58 336 1.0 5.0 0.00 0.01 0.00 75 1024.0
20200331183020 57 317 2.0 5.0 0.00 0.01 0.00 76 1024.0
20200331182522 57 317 1.0 4.0 0.00 0.01 0.00 77 1024.2
20200331182017 56 313 2.0 4.0 0.00 0.01 0.00 78 1024.2
20200331181520 56 321 1.0 4.0 0.00 0.01 0.00 78 1024.3
20200331180519 55 321 2.0 3.0 0.00 0.01 0.00 79 1024.4
20200331180042 54 321 1.0 3.0 0.00 0.01 0.00 81 1024.4
20200331175513 54 321 1.0 4.0 0.00 0.01 0.00 82 1024.4
20200331175015 54 321 2.0 4.0 0.00 0.01 0.00 82 1024.5
20200331174541 53 321 2.0 4.0 0.00 0.01 0.00 83 1024.5
20200331174009 53 321 1.0 5.0 0.00 0.01 0.00 83 1024.5
20200331173507 52 336 2.0 5.0 0.00 0.01 0.00 83 1024.5
20200331173010 52 319 2.0 4.0 0.00 0.01 0.00 84 1024.6
20200331172507 52 319 2.0 4.0 0.00 0.01 0.00 85 1024.6
20200331172003 51 319 2.0 4.0 0.00 0.01 0.00 85 1024.6
20200331171514 51 319 3.0 5.0 0.00 0.01 0.00 85 1024.6
20200331170502 50 321 3.0 5.0 0.00 0.01 0.00 85 1024.5
20200331165643 50 312 3.0 6.0 0.00 0.01 0.00 85 1024.4
20200331165059 49 319 3.0 6.0 0.00 0.01 0.00 85 1024.5
20200331164634 49 315 3.0 6.0 0.00 0.01 0.00 85 1024.5
20200331164102 49 319 4.0 8.0 0.00 0.01 0.00 85 1024.5
20200331163604 49 319 4.0 8.0 0.00 0.01 0.00 85 1024.5
20200331163211 49 315 4.0 8.0 0.00 0.01 0.00 84 1024.5
20200331162629 49 313 4.0 10.0 0.00 0.01 0.00 84 1024.5
20200331162059 49 318 5.0 10.0 0.00 0.01 0.00 82 1024.5
20200331161640 49 315 6.0 10.0 0.00 0.01 0.00 82 1024.5
20200331161108 50 313 5.0 8.0 0.00 0.01 0.00 81 1024.5
20200331160554 50 316 5.0 8.0 0.00 0.01 0.00 81 1024.5
20200331160154 50 314 4.0 8.0 0.00 0.01 0.00 79 1024.5
20200331155619 51 326 3.0 6.0 0.00 0.01 0.00 77 1024.5
20200331155053 52 318 4.0 5.0 0.00 0.01 0.00 75 1024.5
20200331154708 52 320 2.0 5.0 0.00 0.01 0.00 75 1024.6
20200331154056 52 319 3.0 6.0 0.00 0.01 0.00 73 1024.5
20200331153555 52 322 4.0 6.0 0.00 0.01 0.00 72 1024.6
20200331153126 52 319 4.0 6.0 0.00 0.01 0.00 72 1024.5
20200331152549 51 325 3.0 6.0 0.00 0.01 0.00 72 1024.5
20200331152049 51 319 3.0 6.0 0.00 0.01 0.00 72 1024.5
20200331151621 51 320 3.0 5.0 0.00 0.01 0.00 72 1024.6
20200331151047 50 320 2.0 4.0 0.00 0.01 0.00 73 1024.6
20200331150544 50 320 2.0 4.0 0.00 0.01 0.00 73 1024.6
20200331150117 50 320 2.0 4.0 0.00 0.01 0.00 74 1024.6
20200331145545 49 320 2.0 3.0 0.00 0.01 0.00 74 1024.7
20200331145053 49 320 2.0 3.0 0.00 0.01 0.00 73 1024.6
20200331144720 48 320 1.0 2.0 0.00 0.01 0.00 74 1024.6
20200331144046 48 320 0.0 1.0 0.00 0.01 0.00 76 1024.6
20200331143543 48 320 0.0 2.0 0.00 0.01 0.00 75 1024.6
20200331143126 48 320 0.0 2.0 0.00 0.01 0.00 78 1024.6
20200331142544 48 320 0.0 3.0 0.00 0.01 0.00 81 1024.6
20200331142041 48 320 1.0 3.0 0.00 0.01 0.00 81 1024.4
20200331141711 48 320 0.0 3.0 0.00 0.01 0.00 80 1024.4
20200331141052 48 320 1.0 4.0 0.00 0.01 0.00 83 1024.2
20200331140542 48 320 1.0 4.0 0.00 0.01 0.00 83 1024.2
20200331140138 48 320 2.0 5.0 0.00 0.01 0.00 82 1024.2
20200331135541 48 321 2.0 5.0 0.00 0.01 0.00 82 1024.1
20200331135043 48 322 3.0 6.0 0.00 0.01 0.00 82 1024.1
20200331134550 48 324 3.0 6.0 0.00 0.01 0.00 82 1024.2
20200331134039 47 321 4.0 8.0 0.00 0.01 0.00 82 1024.1
20200331133542 48 316 4.0 8.0 0.00 0.01 0.00 81 1024.1
20200331133051 48 324 4.0 6.0 0.00 0.01 0.00 79 1024.0
20200331132539 49 320 3.0 6.0 0.00 0.01 0.00 77 1024.1
20200331132039 50 313 4.0 6.0 0.00 0.01 0.00 76 1024.0
20200331131655 50 316 3.0 5.0 0.00 0.01 0.00 75 1024.1
20200331131042 51 317 2.0 5.0 0.00 0.01 0.00 74 1024.1
20200331130537 51 317 2.0 5.0 0.00 0.01 0.00 74 1024.1
20200331130053 50 321 4.0 5.0 0.00 0.01 0.00 75 1024.2
20200331125538 50 323 3.0 5.0 0.00 0.01 0.00 75 1024.3
20200331125048 50 324 2.0 4.0 0.00 0.01 0.00 76 1024.2
20200331124550 49 325 2.0 4.0 0.00 0.01 0.00 76 1024.3
20200331124032 49 325 1.0 3.0 0.00 0.01 0.00 77 1024.2
20200331123531 48 325 1.0 2.0 0.00 0.01 0.00 78 1024.3
20200331123045 48 325 1.0 2.0 0.00 0.01 0.00 78 1024.4
20200331122554 48 325 0.0 2.0 0.00 0.01 0.00 78 1024.5
20200331122035 48 325 0.0 2.0 0.00 0.01 0.00 78 1024.5